Regional Weather Roundup
Issued by NWS Charleston, SC

Home | Current Version | Previous Version | Text Only | Print | Product List | Glossary On
Versions: 1 2 3 4 5 6 7 8 9 10 11 12 13 14 15 16 17 18 19 20 21 22 23 24 25 26 27 28 29 30 31 32 33 34 35 36 37 38 39 40 41 42 43 44 45 46 47 48 49 50
884
ASUS42 KCHS 040728
RWRCHS

REGIONAL WEATHER ROUNDUP
NATIONAL WEATHER SERVICE CHARLESTON SC
300 AM EDT WED MAY 04 2016

NOTE: "FAIR" INDICATES FEW OR NO CLOUDS BELOW 12,000 FEET WITH NO
SIGNIFICANT WEATHER AND/OR OBSTRUCTIONS TO VISIBILITY.

NOT ALL STATIONS ARE QUALITY CONTROLLED. USE DATA WITH CAUTION...
ESPECIALLY DEWPOINT OBSERVATIONS.

SCZ027-030-031-034>040-042>050-040800-
...SOUTHEAST SOUTH CAROLINA...

CITY           SKY/WX    TMP DP  RH WIND       PRES   REMARKS
N CHARLESTON   CLOUDY    67  64  90 SW8       29.73F
WATERFRONT PRK   N/A     69  67  93 VRB2      29.73F
MOUNT PLEASANT FAIR      66  66 100 W3        29.73F
JOHNS ISLAND   FAIR      68  66  94 W5        29.73F
PINOPOLIS        N/A     68  64  88 SW7       29.66F
MONCKS CORNER  FAIR      63  59  88 SW8       29.73F
SUMMERVILLE    PTSUNNY   64  64 100 SW3       29.74F
BEAUFORT MCAS  CLOUDY    68  66  93 W6        29.75F
BEAUFORT ARPT  PTSUNNY   70  68  94 SW7       29.74F
HILTON HEAD IS CLOUDY    70  70 100 SW6       29.76F
WALTERBORO     CLOUDY    68  68 100 W7        29.75F
ALLENDALE      CLOUDY    66  66 100 VRB3      29.75F

...SOUTHERN MIDLANDS AND PEE DEE...

CITY           SKY/WX    TMP DP  RH WIND       PRES   REMARKS
GEORGETOWN     FAIR      63  61  94 SW3       29.73F
KINGSTREE      PTSUNNY   66  61  82 S3        29.72F
ORANGEBURG     CLOUDY    68  66  93 S5        29.73F
BARNWELL       CLOUDY    72  72 100 CALM      29.76R
AIKEN          PTSUNNY   63  59  88 W5        29.78F
MANNING        FAIR      66  63  88 SW6       29.72F
COLUMBIA       CLOUDY    68  63  84 SW5       29.72F
SUMTER         PTCLDY    68  65  92 W6        29.69F
FLORENCE       CLOUDY    70  66  87 SW5       29.71F
MYRTLE BEACH   CLOUDY    68  57  68 SW7       29.73F
N MYRTLE BEACH CLEAR     68  60  75 SW9       29.70F

$$

GAZ063-065-086>088-099>101-113>116-118-119-134>141-150-040800-
...SOUTHEAST GEORGIA...

CITY           SKY/WX    TMP DP  RH WIND       PRES   REMARKS
SAVANNAH ARPT  CLOUDY    68  66  93 W7        29.76F
HUNTER AAF     DRIZZLE   68  68 100 W5        29.72F
FORT STEWART   CLOUDY    68  66  94 CALM      29.73F
STATESBORO     CLOUDY    71  70  98 W5        29.76F
SYLVANIA       RAIN      68  68 100 CALM      29.77S
CLAXTON        FAIR      68  68 100 CALM      29.76F

...CSRA...CENTRAL AND FAR SOUTHEAST GEORGIA...

CITY           SKY/WX    TMP DP  RH WIND       PRES   REMARKS
THOMSON        CLOUDY    66  60  80 W3        29.82S
AUGUSTA-BUSH   CLOUDY    69  60  73 W8        29.75F
AUGUSTA-DANIEL MOCLDY    68  58  70 W7        29.77F
SWAINSBORO     CLOUDY    68  64  88 W5        29.79R
VIDALIA        CLOUDY    68  66  94 W6        29.77F
EASTMAN        CLOUDY    68  68 100 CALM      29.81F
HAZLEHURST     PTSUNNY   70  70 100 W3        29.76F
ALMA           MOCLDY    66  66 100 W3        29.78F
WAYCROSS       PTCLDY    67  67 100 SW5       29.78S
JESUP          PTSUNNY   70  68  94 W3        29.77S
BAXLEY         FAIR      68  68 100 CALM      29.76F
BRUNSWICK      CLOUDY    73  70  88 CALM      29.77F
SAINT SIMONS   CLOUDY    72  69  90 W3        29.77F

$$

SCZ027-028-034-036>038-045-046-048>050-GAZ119-141-040800-
...LAKE AND SUPPLEMENTAL COASTAL OBSERVATIONS...

STATION/POSITION TIME  TEMP    WIND        PRES    WAVE   SWELL
                       AIR SEA DIR/SP/G            HT/PER HT/PER/DIR
                 (UTC) (F)     (DEG/KT/KT) (MB)    (FT/S) (FT/S/D)
WINYAH BAY       0645   68     250/  7     1006.0F
LAKE MURRAY      0600   71     270/ 10/ 13 1006.8F
ACE BASIN NERRS  0600   67        CALM     1009.0S
FORT PULASKI     0700   71 75  250/  7/  8 1007.8F
SAPELO ISLAND    0700   73     240/  8     1008.0F

$$

ANZ835-935-AMZ111-154-330-350-352-354-370-450-454-472-040800-
...C-MAN AND BUOY OBSERVATIONS...

STATION/POSITION TIME  TEMP    WIND        PRES    WAVE   SWELL
                       AIR SEA DIR/SP/G            HT/PER HT/PER/DIR
                 (UTC) (F)     (DEG/KT/KT) (MB)    (FT/S) (FT/S/D)
BUOY 41004       0650   73 74  170/  8/  8 1006.8F   4/ 5   3/ 5
BUOY 41008       NOT AVBL
FOLLY BEACH CMAN 0700   71     250/  6/  7 1006.8F
CAPERS NEARSHORE 0608   72 71  230/ 10/ 12 1007.0F
FRIPP NEARSHORE  0608   72 73  200/  8/ 10 1007.5F


STATION/POSITION TIME  TEMP    WIND        PRES    WAVE   SWELL
                       AIR SEA DIR/SP/G            HT/PER HT/PER/DIR
                 (UTC) (F)     (DEG/KT/KT) (MB)    (FT/S) (FT/S/D)
5E ST. MARYS GA  0621      74                N/A     2/10
FRYING PAN BUOY  0700   75 73  230/ 14/ 17 1005.0F
BUOY 41025       0650   72 72  250/ 10/ 12 1005.2F   4/ 7   3/180/ 7
CAPE LOOKOUT NC  0700   71     240/ 14/ 18 1004.2F
BUOY 41002       0650   73 74  190/ 17/ 19 1009.2F   5/ 6
BUOY 41010       0620   78 78  220/ 16/ 17 1010.5F
ST AUGUSTINE FL  0700   73 71  240/  8/  9 1010.2F


$$




USA.gov is the U.S. government's official web portal to all federal, state and local government web resources and services.